• In Belarus
  • List of Countries
  • For 7 days
  • Water Temperature
  • Satellite Maps
  • Weather Map
  • Weather Widgets
  • user-avatar
    Login

    Hourly Weather Evdokimovo

    Today, 23 April, Tuesday

    Time Temperature Precipitation Wind Pressure Humidity
    00:00 +10°C° 0 mm 1 mps 754 mmHg 51%
    01:00 +10°C° 0 mm 1 mps 754 mmHg 52%
    02:00 +10°C° 0 mm 1 mps 754 mmHg 53%
    03:00 +10°C° 0 mm 1 mps 754 mmHg 55%
    04:00 +9°C° 0 mm 1 mps 754 mmHg 57%
    05:00 +9°C° 0 mm 1 mps 755 mmHg 59%
    06:00 +11°C° 0 mm 1 mps 755 mmHg 56%
    07:00 +12°C° 0 mm 2 mps 755 mmHg 52%
    08:00 +14°C° 0 mm 2 mps 755 mmHg 49%
    09:00 +16°C° 0 mm 2 mps 755 mmHg 44%
    10:00 +17°C° 0 mm 2 mps 755 mmHg 39%
    11:00 +18°C° 0 mm 2 mps 755 mmHg 34%
    12:00 +18°C° 0 mm 2 mps 755 mmHg 35%
    13:00 +18°C° 0 mm 3 mps 755 mmHg 36%
    14:00 +18°C° 0 mm 3 mps 755 mmHg 37%
    15:00 +18°C° 0 mm 2 mps 754 mmHg 39%
    16:00 +18°C° 0 mm 2 mps 754 mmHg 41%
    17:00 +19°C° 0 mm 1 mps 754 mmHg 43%
    18:00 +16°C° 0 mm 1 mps 754 mmHg 46%
    19:00 +15°C° 0 mm 2 mps 754 mmHg 49%
    20:00 +13°C° 0 mm 2 mps 754 mmHg 52%
    21:00 +12°C° 0 mm 2 mps 754 mmHg 54%
    22:00 +12°C° 0 mm 2 mps 754 mmHg 56%
    23:00 +10°C° 0 mm 2 mps 755 mmHg 58%

    Tomorrow, 24 April, Wednesday

    Time Temperature Precipitation Wind Pressure Humidity
    00:00 +10°C° 0 mm 2 mps 755 mmHg 60%
    01:00 +10°C° 0 mm 2 mps 755 mmHg 62%
    02:00 +9°C° 0 mm 2 mps 755 mmHg 63%
    03:00 +9°C° 0 mm 2 mps 755 mmHg 66%
    04:00 +9°C° 0 mm 2 mps 755 mmHg 68%
    05:00 +8°C° 0 mm 2 mps 755 mmHg 70%
    06:00 +10°C° 0 mm 2 mps 755 mmHg 65%
    07:00 +13°C° 0 mm 2 mps 755 mmHg 60%
    08:00 +15°C° 0 mm 2 mps 755 mmHg 55%
    09:00 +17°C° 0 mm 2 mps 755 mmHg 50%
    10:00 +18°C° 0 mm 3 mps 755 mmHg 46%
    11:00 +20°C° 0 mm 3 mps 755 mmHg 41%
    12:00 +20°C° 0 mm 3 mps 755 mmHg 40%
    13:00 +21°C° 0 mm 3 mps 755 mmHg 38%
    14:00 +21°C° 0 mm 3 mps 755 mmHg 37%
    15:00 +21°C° 0 mm 2 mps 754 mmHg 40%
    16:00 +21°C° 0 mm 2 mps 754 mmHg 42%
    17:00 +21°C° 0 mm 2 mps 754 mmHg 45%
    18:00 +20°C° 0 mm 1 mps 754 mmHg 49%
    19:00 +18°C° 0 mm 1 mps 754 mmHg 53%
    20:00 +15°C° 0 mm 1 mps 754 mmHg 57%
    21:00 +15°C° 0 mm 1 mps 754 mmHg 59%
    22:00 +14°C° 0 mm 1 mps 754 mmHg 60%
    23:00 +14°C° 0 mm 1 mps 754 mmHg 62%

    Day after tomorrow, 25 April, Thursday

    Time Temperature Precipitation Wind Pressure Humidity
    00:00 +13°C° 0 mm 1 mps 754 mmHg 64%
    01:00 +13°C° 0 mm 1 mps 754 mmHg 66%
    02:00 +12°C° 0 mm 1 mps 754 mmHg 67%
    03:00 +12°C° 0 mm 1 mps 754 mmHg 69%
    04:00 +12°C° 0 mm 1 mps 754 mmHg 70%
    05:00 +12°C° 0 mm 1 mps 754 mmHg 72%
    06:00 +13°C° 0 mm 1 mps 754 mmHg 66%
    07:00 +15°C° 0 mm 1 mps 754 mmHg 61%
    08:00 +18°C° 0 mm 1 mps 755 mmHg 55%
    09:00 +18°C° 0 mm 2 mps 754 mmHg 51%
    10:00 +20°C° 0 mm 2 mps 754 mmHg 46%
    11:00 +21°C° 0 mm 2 mps 754 mmHg 42%
    12:00 +23°C° 0 mm 2 mps 754 mmHg 40%
    13:00 +23°C° 0 mm 1 mps 754 mmHg 39%
    14:00 +24°C° 0 mm 1 mps 754 mmHg 37%
    15:00 +23°C° 0 mm 1 mps 753 mmHg 41%
    16:00 +23°C° 0 mm 1 mps 753 mmHg 44%
    17:00 +22°C° 0 mm 1 mps 753 mmHg 48%
    18:00 +20°C° 0 mm 2 mps 753 mmHg 51%
    19:00 +19°C° 0 mm 2 mps 753 mmHg 53%
    20:00 +18°C° 0 mm 2 mps 753 mmHg 56%
    21:00 +17°C° 0 mm 2 mps 753 mmHg 57%
    22:00 +17°C° 0 mm 2 mps 753 mmHg 58%
    23:00 +17°C° 0 mm 2 mps 752 mmHg 59%

    26 April, Friday

    Time Temperature Precipitation Wind Pressure Humidity
    00:00 +16°C° 0 mm 1 mps 752 mmHg 60%
    01:00 +16°C° 0 mm 1 mps 752 mmHg 61%
    02:00 +16°C° 0 mm 1 mps 752 mmHg 62%
    03:00 +16°C° 0 mm 1 mps 752 mmHg 63%
    04:00 +15°C° 0 mm 2 mps 752 mmHg 64%
    05:00 +15°C° 0 mm 2 mps 752 mmHg 65%
    06:00 +16°C° 0.1 mm 2 mps 752 mmHg 64%
    07:00 +16°C° 0.1 mm 2 mps 752 mmHg 64%
    08:00 +17°C° 0.1 mm 3 mps 752 mmHg 64%
    09:00 +18°C° 0.2 mm 3 mps 752 mmHg 60%
    10:00 +19°C° 0.2 mm 2 mps 752 mmHg 57%
    11:00 +20°C° 0.2 mm 2 mps 752 mmHg 53%
    12:00 +20°C° 0.2 mm 2 mps 752 mmHg 51%
    13:00 +22°C° 0.2 mm 1 mps 751 mmHg 48%
    14:00 +23°C° 0.2 mm 1 mps 751 mmHg 45%
    15:00 +22°C° 0.4 mm 1 mps 751 mmHg 49%
    16:00 +21°C° 0.4 mm 1 mps 751 mmHg 53%
    17:00 +21°C° 0.4 mm 1 mps 751 mmHg 57%
    18:00 +19°C° 0.4 mm 1 mps 751 mmHg 62%
    19:00 +18°C° 0.4 mm 1 mps 750 mmHg 66%
    20:00 +16°C° 0.4 mm 1 mps 750 mmHg 71%
    21:00 +15°C° 0 mm 1 mps 750 mmHg 73%
    22:00 +14°C° 0 mm 1 mps 750 mmHg 75%
    23:00 +14°C° 0 mm 1 mps 750 mmHg 77%

    27 April, Saturday

    Time Temperature Precipitation Wind Pressure Humidity
    00:00 +13°C° 0 mm 1 mps 750 mmHg 79%
    01:00 +13°C° 0 mm 1 mps 750 mmHg 81%
    02:00 +12°C° 0 mm 1 mps 749 mmHg 82%
    03:00 +12°C° 0 mm 1 mps 749 mmHg 82%
    04:00 +12°C° 0 mm 1 mps 749 mmHg 82%
    05:00 +12°C° 0 mm 1 mps 749 mmHg 82%
    06:00 +14°C° 0 mm 1 mps 749 mmHg 78%
    07:00 +15°C° 0 mm 2 mps 749 mmHg 73%
    08:00 +17°C° 0 mm 2 mps 749 mmHg 68%
    09:00 +18°C° 0 mm 2 mps 748 mmHg 60%
    10:00 +20°C° 0 mm 3 mps 748 mmHg 52%
    11:00 +21°C° 0 mm 3 mps 748 mmHg 44%
    12:00 +21°C° 0 mm 3 mps 748 mmHg 44%
    13:00 +21°C° 0 mm 3 mps 748 mmHg 44%
    14:00 +22°C° 0 mm 3 mps 747 mmHg 43%
    15:00 +21°C° 0 mm 3 mps 747 mmHg 49%
    16:00 +20°C° 0 mm 2 mps 747 mmHg 55%
    17:00 +19°C° 0 mm 2 mps 747 mmHg 61%
    18:00 +18°C° 0 mm 2 mps 747 mmHg 63%
    19:00 +17°C° 0 mm 2 mps 746 mmHg 65%
    20:00 +16°C° 0 mm 2 mps 746 mmHg 66%
    21:00 +16°C° 0.3 mm 3 mps 746 mmHg 71%
    22:00 +14°C° 0.3 mm 3 mps 746 mmHg 76%
    23:00 +14°C° 0.3 mm 4 mps 746 mmHg 81%

    28 April, Sunday

    Time Temperature Precipitation Wind Pressure Humidity
    00:00 +13°C° 1.3 mm 3 mps 746 mmHg 84%
    01:00 +14°C° 1.3 mm 2 mps 746 mmHg 87%
    02:00 +14°C° 1.3 mm 2 mps 746 mmHg 90%
    03:00 +14°C° 1.7 mm 2 mps 746 mmHg 91%
    04:00 +14°C° 1.7 mm 2 mps 746 mmHg 92%
    05:00 +13°C° 1.7 mm 3 mps 746 mmHg 93%
    06:00 +13°C° 0.4 mm 3 mps 746 mmHg 91%
    07:00 +13°C° 0.4 mm 3 mps 746 mmHg 90%
    08:00 +13°C° 0.4 mm 4 mps 746 mmHg 88%
    09:00 +14°C° 0.3 mm 3 mps 746 mmHg 85%
    10:00 +16°C° 0.3 mm 3 mps 746 mmHg 82%
    11:00 +17°C° 0.3 mm 2 mps 746 mmHg 79%
    12:00 +17°C° 0.7 mm 2 mps 746 mmHg 79%
    13:00 +17°C° 0.7 mm 2 mps 745 mmHg 79%
    14:00 +18°C° 0.7 mm 1 mps 745 mmHg 80%
    15:00 +16°C° 0.7 mm 2 mps 745 mmHg 82%
    16:00 +16°C° 0.7 mm 2 mps 745 mmHg 85%
    17:00 +16°C° 0.7 mm 2 mps 745 mmHg 87%
    18:00 +14°C° 0.3 mm 3 mps 745 mmHg 88%
    19:00 +14°C° 0.3 mm 3 mps 745 mmHg 88%
    20:00 +13°C° 0.3 mm 3 mps 745 mmHg 89%
    21:00 +13°C° 0.2 mm 3 mps 745 mmHg 88%
    22:00 +13°C° 0.2 mm 3 mps 745 mmHg 87%
    23:00 +14°C° 0.2 mm 2 mps 745 mmHg 86%
    Show more